| time (UTC) | temp F | wind direction | speed MPH | gust MPH | rain 1hr in | rain 24hr in | rain mn in | humidity % | barometer mb |
| 20260502221543 | 52 | 77 | 1.0 | 10.0 | 0.00 | 0.00 | 0.00 | 48 | 1014.1 |
| 20260502221033 | 52 | 88 | 3.0 | 10.0 | 0.00 | 0.00 | 0.00 | 48 | 1014.1 |
| 20260502220535 | 52 | 51 | 3.0 | 10.0 | 0.00 | 0.00 | 0.00 | 48 | 1014.2 |
| 20260502220046 | 52 | 85 | 1.0 | 10.0 | 0.00 | 0.00 | 0.00 | 48 | 1014.2 |
| 20260502215534 | 52 | 128 | 3.0 | 10.0 | 0.00 | 0.00 | 0.00 | 46 | 1014.1 |
| 20260502215032 | 52 | 271 | 3.0 | 8.0 | 0.00 | 0.00 | 0.00 | 46 | 1014.1 |
| 20260502214539 | 53 | 75 | 2.0 | 12.0 | 0.00 | 0.00 | 0.00 | 47 | 1014.0 |
| 20260502214032 | 54 | 309 | 3.0 | 12.0 | 0.00 | 0.00 | 0.00 | 44 | 1013.9 |
| 20260502213530 | 53 | 96 | 4.0 | 10.0 | 0.00 | 0.00 | 0.00 | 47 | 1013.9 |
| 20260502213047 | 53 | 318 | 3.0 | 11.0 | 0.00 | 0.00 | 0.00 | 43 | 1013.8 |
| 20260502212533 | 54 | 92 | 2.0 | 11.0 | 0.00 | 0.00 | 0.00 | 44 | 1013.8 |
| 20260502212033 | 54 | 78 | 5.0 | 11.0 | 0.00 | 0.00 | 0.00 | 45 | 1013.7 |
| 20260502211537 | 55 | 292 | 3.0 | 11.0 | 0.00 | 0.00 | 0.00 | 45 | 1013.8 |
| 20260502211032 | 54 | 67 | 3.0 | 10.0 | 0.00 | 0.00 | 0.00 | 44 | 1013.7 |
| 20260502210529 | 54 | 59 | 3.0 | 11.0 | 0.00 | 0.00 | 0.00 | 46 | 1013.8 |
| 20260502205533 | 54 | 240 | 6.0 | 12.0 | 0.00 | 0.00 | 0.00 | 41 | 1013.5 |
| 20260502205033 | 55 | 66 | 2.0 | 11.0 | 0.00 | 0.00 | 0.00 | 45 | 1013.5 |
| 20260502204552 | 53 | 59 | 3.0 | 11.0 | 0.00 | 0.00 | 0.00 | 45 | 1013.6 |
| 20260502204035 | 54 | 294 | 4.0 | 12.0 | 0.00 | 0.00 | 0.00 | 45 | 1013.5 |
| 20260502203533 | 55 | 336 | 4.0 | 12.0 | 0.00 | 0.00 | 0.00 | 44 | 1013.6 |
| 20260502203044 | 55 | 144 | 3.0 | 10.0 | 0.00 | 0.00 | 0.00 | 45 | 1013.5 |
| 20260502202533 | 53 | 250 | 5.0 | 10.0 | 0.00 | 0.00 | 0.00 | 49 | 1013.6 |
| 20260502202034 | 55 | 283 | 4.0 | 10.0 | 0.00 | 0.00 | 0.00 | 44 | 1013.6 |
| 20260502201549 | 55 | 322 | 2.0 | 14.0 | 0.00 | 0.00 | 0.00 | 46 | 1013.7 |
| 20260502201033 | 54 | 78 | 3.0 | 14.0 | 0.00 | 0.00 | 0.00 | 44 | 1013.8 |
| 20260502200535 | 54 | 85 | 4.0 | 12.0 | 0.00 | 0.00 | 0.00 | 44 | 1013.9 |
| 20260502200040 | 53 | 319 | 4.0 | 10.0 | 0.00 | 0.00 | 0.00 | 44 | 1013.8 |
| 20260502195532 | 54 | 82 | 2.0 | 9.0 | 0.00 | 0.00 | 0.00 | 46 | 1013.7 |
| 20260502195032 | 55 | 65 | 2.0 | 10.0 | 0.00 | 0.00 | 0.00 | 42 | 1013.8 |
| 20260502194537 | 55 | 56 | 3.0 | 11.0 | 0.00 | 0.00 | 0.00 | 45 | 1013.7 |
| 20260502194032 | 55 | 281 | 4.0 | 14.0 | 0.00 | 0.00 | 0.00 | 44 | 1013.8 |
| 20260502193530 | 55 | 71 | 6.0 | 17.0 | 0.00 | 0.00 | 0.00 | 43 | 1013.8 |
| 20260502193037 | 55 | 303 | 3.0 | 17.0 | 0.00 | 0.00 | 0.00 | 41 | 1013.7 |
| 20260502192533 | 57 | 78 | 7.0 | 13.0 | 0.00 | 0.00 | 0.00 | 44 | 1013.6 |
| 20260502192030 | 56 | 23 | 2.0 | 9.0 | 0.00 | 0.00 | 0.00 | 40 | 1013.6 |
| 20260502191556 | 55 | 312 | 4.0 | 9.0 | 0.00 | 0.00 | 0.00 | 42 | 1013.5 |
| 20260502191035 | 56 | 70 | 3.0 | 10.0 | 0.00 | 0.00 | 0.00 | 39 | 1013.4 |
| 20260502190534 | 59 | 46 | 4.0 | 10.0 | 0.00 | 0.00 | 0.00 | 38 | 1013.6 |
| 20260502190040 | 58 | 318 | 4.0 | 12.0 | 0.00 | 0.00 | 0.00 | 39 | 1013.6 |
| 20260502185534 | 59 | 88 | 3.0 | 13.0 | 0.00 | 0.00 | 0.00 | 38 | 1013.6 |
| 20260502185035 | 59 | 82 | 6.0 | 13.0 | 0.00 | 0.00 | 0.00 | 41 | 1013.6 |
| 20260502184548 | 57 | 121 | 2.0 | 11.0 | 0.00 | 0.00 | 0.00 | 42 | 1013.4 |
| 20260502184030 | 57 | 348 | 3.0 | 10.0 | 0.00 | 0.00 | 0.00 | 39 | 1013.4 |
| 20260502183535 | 58 | 38 | 4.0 | 10.0 | 0.00 | 0.00 | 0.00 | 41 | 1013.6 |
| 20260502183059 | 57 | 259 | 1.0 | 9.0 | 0.00 | 0.00 | 0.00 | 43 | 1013.7 |
| 20260502182533 | 58 | 56 | 4.0 | 15.0 | 0.00 | 0.00 | 0.00 | 41 | 1013.6 |
| 20260502182033 | 57 | 19 | 5.0 | 15.0 | 0.00 | 0.00 | 0.00 | 41 | 1013.7 |
| 20260502181543 | 57 | 70 | 3.0 | 12.0 | 0.00 | 0.00 | 0.00 | 39 | 1013.7 |
| 20260502181029 | 59 | 46 | 4.0 | 12.0 | 0.00 | 0.00 | 0.00 | 37 | 1013.6 |
| 20260502180529 | 59 | 83 | 4.0 | 12.0 | 0.00 | 0.00 | 0.00 | 37 | 1013.7 |
| 20260502164033 | 55 | 59 | 4.0 | 14.0 | 0.00 | 0.00 | 0.00 | 45 | 1014.5 |
| 20260502163533 | 56 | 56 | 2.0 | 16.0 | 0.00 | 0.00 | 0.00 | 43 | 1014.5 |
| 20260502163055 | 56 | 92 | 3.0 | 16.0 | 0.00 | 0.00 | 0.00 | 45 | 1014.6 |
| 20260502162529 | 56 | 85 | 7.0 | 16.0 | 0.00 | 0.00 | 0.00 | 43 | 1014.6 |
| 20260502162035 | 56 | 103 | 4.0 | 14.0 | 0.00 | 0.00 | 0.00 | 46 | 1014.7 |
| 20260502161549 | 54 | 45 | 2.0 | 10.0 | 0.00 | 0.00 | 0.00 | 47 | 1015.0 |
| 20260502161034 | 54 | 307 | 5.0 | 10.0 | 0.00 | 0.00 | 0.00 | 45 | 1015.0 |
| 20260502160535 | 53 | 255 | 1.0 | 5.0 | 0.00 | 0.00 | 0.00 | 49 | 1015.0 |
| 20260502152037 | 53 | 76 | 4.0 | 12.0 | 0.00 | 0.00 | 0.00 | 52 | 1015.3 |
| 20260502151545 | 51 | 78 | 2.0 | 8.0 | 0.00 | 0.00 | 0.00 | 53 | 1015.4 |
| 20260502151030 | 50 | 191 | 2.0 | 5.0 | 0.00 | 0.00 | 0.00 | 53 | 1015.5 |
| 20260502150529 | 49 | 180 | 1.0 | 9.0 | 0.00 | 0.00 | 0.00 | 57 | 1015.5 |
| 20260502130536 | 45 | 303 | 1.0 | 5.0 | 0.00 | 0.00 | 0.00 | 61 | 1015.7 |
| 20260502123533 | 44 | 42 | 1.0 | 3.0 | 0.00 | 0.00 | 0.00 | 63 | 1015.5 |
| 20260502123039 | 44 | 27 | 1.0 | 3.0 | 0.00 | 0.00 | 0.00 | 63 | 1015.5 |
| 20260502122532 | 44 | 42 | 0.0 | 4.0 | 0.00 | 0.00 | 0.00 | 64 | 1015.6 |
| 20260502122034 | 44 | 42 | 0.0 | 5.0 | 0.00 | 0.00 | 0.00 | 64 | 1015.6 |
| 20260502121546 | 43 | 51 | 2.0 | 5.0 | 0.00 | 0.00 | 0.00 | 63 | 1015.6 |
| 20260502121030 | 44 | 218 | 2.0 | 4.0 | 0.00 | 0.00 | 0.00 | 66 | 1015.8 |
| 20260502120529 | 43 | 304 | 1.0 | 4.0 | 0.00 | 0.00 | 0.00 | 66 | 1015.8 |
| 20260502115529 | 43 | 49 | 0.0 | 5.0 | 0.00 | 0.00 | 0.00 | 65 | 1015.7 |
| 20260502115029 | 43 | 39 | 2.0 | 5.0 | 0.00 | 0.00 | 0.00 | 65 | 1015.7 |
| 20260502114545 | 43 | 9 | 0.0 | 6.0 | 0.00 | 0.00 | 0.00 | 66 | 1015.7 |
| 20260502114034 | 43 | 53 | 3.0 | 6.0 | 0.00 | 0.00 | 0.00 | 66 | 1015.6 |
| 20260502113530 | 43 | 0 | 0.0 | 8.0 | 0.00 | 0.00 | 0.00 | 67 | 1015.5 |
| 20260502113039 | 43 | 317 | 0.0 | 8.0 | 0.00 | 0.00 | 0.00 | 66 | 1015.5 |
| 20260502112532 | 42 | 337 | 3.0 | 8.0 | 0.00 | 0.00 | 0.00 | 66 | 1015.4 |
| 20260502112033 | 42 | 269 | 2.0 | 5.0 | 0.00 | 0.00 | 0.00 | 67 | 1015.3 |
| 20260502111539 | 42 | 21 | 0.0 | 5.0 | 0.00 | 0.00 | 0.00 | 67 | 1015.3 |
| 20260502111033 | 42 | 360 | 1.0 | 5.0 | 0.00 | 0.00 | 0.00 | 67 | 1015.3 |
| 20260502110533 | 42 | 360 | 1.0 | 4.0 | 0.00 | 0.00 | 0.00 | 67 | 1015.2 |
| 20260502110055 | 42 | 360 | 0.0 | 6.0 | 0.00 | 0.00 | 0.00 | 67 | 1015.2 |
| 20260502105533 | 41 | 360 | 2.0 | 6.0 | 0.00 | 0.00 | 0.00 | 68 | 1015.2 |
| 20260502105029 | 41 | 360 | 1.0 | 5.0 | 0.00 | 0.00 | 0.00 | 71 | 1015.2 |
| 20260502104537 | 40 | 360 | 1.0 | 5.0 | 0.00 | 0.00 | 0.00 | 76 | 1015.2 |
| 20260502104029 | 39 | 0 | 1.0 | 5.0 | 0.00 | 0.00 | 0.00 | 80 | 1015.2 |
| 20260502103529 | 38 | 360 | 1.0 | 2.0 | 0.00 | 0.00 | 0.00 | 82 | 1015.2 |
| 20260502103046 | 38 | 360 | 0.0 | 3.0 | 0.00 | 0.00 | 0.00 | 82 | 1015.2 |
| 20260502102529 | 38 | 0 | 1.0 | 3.0 | 0.00 | 0.00 | 0.00 | 81 | 1015.2 |
| 20260502102032 | 38 | 360 | 1.0 | 3.0 | 0.00 | 0.00 | 0.00 | 83 | 1015.3 |
| 20260502101551 | 38 | 360 | 0.0 | 3.0 | 0.00 | 0.00 | 0.00 | 82 | 1015.4 |
| 20260502101035 | 38 | 0 | 1.0 | 4.0 | 0.00 | 0.00 | 0.00 | 82 | 1015.4 |
| 20260502100533 | 38 | 0 | 0.0 | 4.0 | 0.00 | 0.00 | 0.00 | 82 | 1015.4 |
| 20260502091029 | 45 | 52 | 0.0 | 3.0 | 0.00 | 0.00 | 0.00 | 63 | 1015.5 |
| 20260502090530 | 45 | 49 | 1.0 | 3.0 | 0.00 | 0.00 | 0.00 | 61 | 1015.5 |
| 20260502071033 | 48 | 59 | 1.0 | 7.0 | 0.00 | 0.00 | 0.00 | 70 | 1014.9 |
| 20260502070533 | 48 | 83 | 1.0 | 9.0 | 0.00 | 0.00 | 0.00 | 71 | 1014.9 |
| 20260502070039 | 48 | 72 | 3.0 | 9.0 | 0.00 | 0.00 | 0.00 | 71 | 1015.0 |
| 20260502065534 | 48 | 62 | 0.0 | 5.0 | 0.00 | 0.00 | 0.00 | 72 | 1015.0 |
| 20260502065032 | 48 | 323 | 2.0 | 5.0 | 0.00 | 0.00 | 0.00 | 71 | 1014.9 |
| 20260502064537 | 49 | 74 | 0.0 | 8.0 | 0.00 | 0.00 | 0.00 | 72 | 1015.1 |
| 20260502064029 | 49 | 74 | 0.0 | 8.0 | 0.00 | 0.00 | 0.00 | 72 | 1015.1 |
| 20260502063532 | 49 | 75 | 3.0 | 8.0 | 0.00 | 0.00 | 0.00 | 71 | 1015.1 |
| 20260502063038 | 49 | 273 | 1.0 | 6.0 | 0.00 | 0.00 | 0.00 | 71 | 1015.1 |
| 20260502062530 | 49 | 77 | 2.0 | 6.0 | 0.00 | 0.00 | 0.00 | 71 | 1015.1 |
| 20260502062030 | 49 | 0 | 0.0 | 4.0 | 0.00 | 0.00 | 0.00 | 71 | 1015.2 |
| 20260502061540 | 49 | 0 | 2.0 | 4.0 | 0.00 | 0.00 | 0.00 | 71 | 1015.2 |
| 20260502061032 | 49 | 112 | 1.0 | 7.0 | 0.00 | 0.00 | 0.00 | 71 | 1015.3 |
| 20260502060533 | 49 | 104 | 2.0 | 7.0 | 0.00 | 0.00 | 0.00 | 71 | 1015.3 |
| 20260502060038 | 49 | 0 | 0.0 | 3.0 | 0.00 | 0.00 | 0.00 | 71 | 1015.3 |
| 20260502055530 | 49 | 74 | 1.0 | 3.0 | 0.00 | 0.00 | 0.00 | 70 | 1015.3 |
| 20260502055033 | 49 | 105 | 0.0 | 3.0 | 0.00 | 0.00 | 0.00 | 71 | 1015.3 |
| 20260502054545 | 49 | 80 | 0.0 | 4.0 | 0.00 | 0.00 | 0.00 | 70 | 1015.4 |
| 20260502054032 | 49 | 33 | 1.0 | 6.0 | 0.00 | 0.00 | 0.00 | 69 | 1015.5 |
| 20260502053530 | 49 | 317 | 2.0 | 7.0 | 0.00 | 0.00 | 0.00 | 69 | 1015.2 |
| 20260502053040 | 49 | 0 | 3.0 | 7.0 | 0.00 | 0.00 | 0.00 | 69 | 1015.2 |
| 20260502052534 | 49 | 360 | 1.0 | 5.0 | 0.00 | 0.00 | 0.00 | 69 | 1015.1 |
| 20260502052031 | 49 | 78 | 1.0 | 11.0 | 0.00 | 0.00 | 0.00 | 69 | 1015.0 |
| 20260502051544 | 49 | 360 | 3.0 | 11.0 | 0.00 | 0.00 | 0.00 | 68 | 1015.0 |
| 20260502051034 | 49 | 94 | 0.0 | 3.0 | 0.00 | 0.00 | 0.00 | 68 | 1015.2 |
| 20260502050530 | 49 | 55 | 0.0 | 3.0 | 0.00 | 0.00 | 0.00 | 68 | 1015.1 |
| 20260502050040 | 50 | 0 | 0.0 | 4.0 | 0.00 | 0.00 | 0.00 | 67 | 1015.1 |
| 20260502045530 | 50 | 0 | 1.0 | 9.0 | 0.00 | 0.00 | 0.00 | 68 | 1015.1 |
| 20260502045036 | 50 | 0 | 1.0 | 9.0 | 0.00 | 0.00 | 0.00 | 67 | 1015.1 |
| 20260502044545 | 50 | 360 | 3.0 | 9.0 | 0.00 | 0.00 | 0.00 | 67 | 1015.0 |
| 20260502044031 | 50 | 360 | 1.0 | 6.0 | 0.00 | 0.00 | 0.00 | 69 | 1015.1 |
| 20260502043529 | 50 | 0 | 1.0 | 5.0 | 0.00 | 0.00 | 0.00 | 68 | 1015.1 |
| 20260502043037 | 50 | 0 | 0.0 | 4.0 | 0.00 | 0.00 | 0.00 | 69 | 1015.1 |
| 20260502042534 | 50 | 0 | 0.0 | 4.0 | 0.00 | 0.00 | 0.00 | 69 | 1015.2 |
| 20260502042033 | 50 | 360 | 1.0 | 4.0 | 0.00 | 0.00 | 0.00 | 71 | 1015.2 |
| 20260502041602 | 50 | 0 | 2.0 | 4.0 | 0.00 | 0.00 | 0.00 | 71 | 1015.0 |
| 20260502041032 | 50 | 360 | 1.0 | 3.0 | 0.00 | 0.00 | 0.00 | 72 | 1015.0 |
| 20260502040534 | 50 | 0 | 0.0 | 2.0 | 0.00 | 0.00 | 0.00 | 71 | 1015.0 |
| 20260502040043 | 50 | 0 | 0.0 | 2.0 | 0.00 | 0.00 | 0.00 | 71 | 1015.0 |
| 20260502035534 | 51 | 0 | 0.0 | 4.0 | 0.00 | 0.00 | 0.00 | 69 | 1014.9 |
| 20260502035033 | 51 | 0 | 0.0 | 4.0 | 0.00 | 0.00 | 0.00 | 69 | 1014.9 |
| 20260502034534 | 51 | 305 | 2.0 | 7.0 | 0.00 | 0.00 | 0.00 | 68 | 1015.0 |
| 20260502034030 | 51 | 296 | 1.0 | 7.0 | 0.00 | 0.00 | 0.00 | 68 | 1015.0 |
| 20260502033529 | 51 | 312 | 1.0 | 7.0 | 0.00 | 0.00 | 0.00 | 67 | 1015.0 |
| 20260502033049 | 52 | 0 | 0.0 | 7.0 | 0.00 | 0.00 | 0.00 | 67 | 1015.0 |
| 20260502032529 | 52 | 319 | 2.0 | 7.0 | 0.00 | 0.00 | 0.00 | 67 | 1015.0 |
| 20260502032033 | 52 | 331 | 2.0 | 7.0 | 0.00 | 0.00 | 0.00 | 67 | 1015.1 |
| 20260502031546 | 52 | 316 | 0.0 | 5.0 | 0.00 | 0.00 | 0.00 | 69 | 1015.1 |
| 20260502031029 | 52 | 13 | 1.0 | 4.0 | 0.00 | 0.00 | 0.00 | 69 | 1015.2 |
| 20260502030530 | 52 | 40 | 0.0 | 9.0 | 0.00 | 0.00 | 0.00 | 69 | 1015.0 |
| 20260502030038 | 52 | 0 | 0.0 | 9.0 | 0.00 | 0.00 | 0.00 | 69 | 1015.0 |
| 20260502025533 | 53 | 251 | 1.0 | 8.0 | 0.00 | 0.00 | 0.00 | 69 | 1015.0 |
| 20260502025033 | 53 | 0 | 0.0 | 4.0 | 0.00 | 0.00 | 0.00 | 68 | 1015.0 |
| 20260502024541 | 53 | 309 | 0.0 | 4.0 | 0.00 | 0.00 | 0.00 | 68 | 1015.0 |
| 20260502024032 | 53 | 0 | 1.0 | 4.0 | 0.00 | 0.00 | 0.00 | 68 | 1014.9 |
| 20260502023533 | 53 | 69 | 0.0 | 6.0 | 0.00 | 0.00 | 0.00 | 68 | 1014.7 |
| 20260502023042 | 53 | 298 | 1.0 | 7.0 | 0.00 | 0.00 | 0.00 | 68 | 1014.8 |
| 20260502022535 | 53 | 316 | 1.0 | 10.0 | 0.00 | 0.00 | 0.00 | 67 | 1014.7 |
| 20260502022036 | 53 | 0 | 2.0 | 11.0 | 0.00 | 0.00 | 0.00 | 67 | 1014.6 |
| 20260502021536 | 53 | 296 | 4.0 | 11.0 | 0.00 | 0.00 | 0.00 | 67 | 1014.5 |
| 20260502021032 | 53 | 297 | 1.0 | 5.0 | 0.00 | 0.00 | 0.00 | 67 | 1014.5 |
| 20260502020532 | 54 | 113 | 1.0 | 10.0 | 0.00 | 0.00 | 0.00 | 65 | 1014.4 |
| 20260502020038 | 54 | 0 | 3.0 | 14.0 | 0.00 | 0.00 | 0.00 | 65 | 1014.2 |
| 20260502015530 | 54 | 323 | 5.0 | 14.0 | 0.00 | 0.00 | 0.00 | 64 | 1013.9 |
| 20260502015030 | 54 | 69 | 2.0 | 12.0 | 0.00 | 0.00 | 0.00 | 63 | 1013.7 |
| 20260502014537 | 55 | 302 | 4.0 | 15.0 | 0.00 | 0.00 | 0.00 | 62 | 1013.6 |
| 20260502014032 | 56 | 333 | 4.0 | 15.0 | 0.00 | 0.00 | 0.00 | 60 | 1013.6 |
| 20260502013532 | 56 | 32 | 3.0 | 11.0 | 0.00 | 0.00 | 0.00 | 58 | 1013.4 |
| 20260502013044 | 57 | 321 | 3.0 | 10.0 | 0.00 | 0.00 | 0.00 | 56 | 1013.5 |
| 20260502012529 | 57 | 62 | 3.0 | 11.0 | 0.00 | 0.00 | 0.00 | 54 | 1013.4 |
| 20260502012036 | 58 | 91 | 4.0 | 11.0 | 0.00 | 0.00 | 0.00 | 51 | 1013.4 |
| 20260502011540 | 59 | 123 | 5.0 | 11.0 | 0.00 | 0.00 | 0.00 | 49 | 1013.2 |
| 20260502011032 | 59 | 34 | 1.0 | 3.0 | 0.00 | 0.00 | 0.00 | 47 | 1013.1 |
| 20260502010530 | 59 | 130 | 1.0 | 7.0 | 0.00 | 0.00 | 0.00 | 47 | 1012.7 |
| 20260502010040 | 59 | 46 | 1.0 | 7.0 | 0.00 | 0.00 | 0.00 | 47 | 1012.5 |
| 20260502005533 | 59 | 29 | 1.0 | 7.0 | 0.00 | 0.00 | 0.00 | 48 | 1012.4 |
| 20260502005033 | 58 | 288 | 3.0 | 7.0 | 0.00 | 0.00 | 0.00 | 48 | 1012.2 |
| 20260502004535 | 58 | 0 | 1.0 | 3.0 | 0.00 | 0.00 | 0.00 | 52 | 1012.2 |
| 20260502004029 | 58 | 51 | 0.0 | 4.0 | 0.00 | 0.00 | 0.00 | 46 | 1012.1 |
| 20260502003532 | 59 | 0 | 1.0 | 4.0 | 0.00 | 0.00 | 0.00 | 51 | 1012.0 |
| 20260502003037 | 59 | 0 | 0.0 | 6.0 | 0.00 | 0.00 | 0.00 | 48 | 1011.9 |
| 20260502002535 | 60 | 315 | 1.0 | 6.0 | 0.00 | 0.00 | 0.00 | 46 | 1011.8 |
| 20260502002029 | 60 | 201 | 2.0 | 4.0 | 0.00 | 0.00 | 0.00 | 45 | 1011.7 |
| 20260502001542 | 59 | 278 | 1.0 | 3.0 | 0.00 | 0.00 | 0.00 | 46 | 1011.6 |
| 20260502001030 | 59 | 0 | 0.0 | 3.0 | 0.00 | 0.00 | 0.00 | 49 | 1011.5 |
| 20260502000529 | 59 | 0 | 0.0 | 6.0 | 0.00 | 0.00 | 0.00 | 47 | 1011.5 |
| 20260502000045 | 58 | 82 | 1.0 | 6.0 | 0.00 | 0.00 | 0.00 | 54 | 1011.3 |
| 20260501235532 | 59 | 326 | 1.0 | 3.0 | 0.00 | 0.00 | 0.00 | 57 | 1011.2 |
| 20260501235033 | 62 | 0 | 0.0 | 4.0 | 0.00 | 0.00 | 0.00 | 39 | 1011.1 |
| 20260501234538 | 62 | 337 | 1.0 | 5.0 | 0.00 | 0.00 | 0.00 | 40 | 1011.1 |
| 20260501234033 | 62 | 229 | 0.0 | 9.0 | 0.00 | 0.00 | 0.00 | 39 | 1010.9 |
| 20260501233530 | 63 | 295 | 2.0 | 9.0 | 0.00 | 0.00 | 0.00 | 38 | 1010.9 |
| 20260501233102 | 63 | 38 | 2.0 | 9.0 | 0.00 | 0.00 | 0.00 | 40 | 1010.8 |
| 20260501232530 | 63 | 305 | 1.0 | 11.0 | 0.00 | 0.00 | 0.00 | 38 | 1010.8 |
| 20260501232033 | 63 | 45 | 2.0 | 11.0 | 0.00 | 0.00 | 0.00 | 38 | 1010.9 |
| 20260501231558 | 64 | 36 | 3.0 | 9.0 | 0.00 | 0.00 | 0.00 | 37 | 1010.8 |
| 20260501231029 | 64 | 86 | 1.0 | 9.0 | 0.00 | 0.00 | 0.00 | 37 | 1010.8 |
| 20260501230532 | 64 | 36 | 4.0 | 9.0 | 0.00 | 0.00 | 0.00 | 36 | 1010.8 |
| 20260501230049 | 65 | 37 | 3.0 | 7.0 | 0.00 | 0.00 | 0.00 | 36 | 1010.8 |
| 20260501225530 | 64 | 0 | 0.0 | 3.0 | 0.00 | 0.00 | 0.00 | 37 | 1010.8 |
| 20260501225035 | 65 | 65 | 1.0 | 5.0 | 0.00 | 0.00 | 0.00 | 36 | 1010.8 |
| 20260501224546 | 65 | 0 | 1.0 | 7.0 | 0.00 | 0.00 | 0.00 | 36 | 1010.7 |
| 20260501224038 | 65 | 38 | 3.0 | 9.0 | 0.00 | 0.00 | 0.00 | 33 | 1010.8 |
| 20260501223534 | 66 | 79 | 1.0 | 9.0 | 0.00 | 0.00 | 0.00 | 35 | 1010.7 |
| 20260501223111 | 66 | 360 | 3.0 | 9.0 | 0.00 | 0.00 | 0.00 | 32 | 1010.8 |
| 20260501222537 | 68 | 311 | 2.0 | 9.0 | 0.00 | 0.00 | 0.00 | 30 | 1010.7 |
| 20260501222032 | 68 | 97 | 2.0 | 9.0 | 0.00 | 0.00 | 0.00 | 36 | 1010.7 |